When you browse on this site, cookies collect data to enhance your experience and personalize the content and advertising you see.
Visit our Privacy Policy to learn more. By continuing to use the site, you agree to this use of cookies and data.
  • In Hungary
  • List of Countries
  • For 7 days
  • Water Temperature
  • Weather Map
  • News
  • Weather Widgets
  • user-avatar
    Login

    Hourly Weather Banswada

    Today, 19 August, Monday

    Time Temperature Precipitation Wind Pressure Humidity
    00:00 +27°C° 0.3 mm 2 mps 722 mmHg 80%
    01:00 +27°C° 0.3 mm 2 mps 721 mmHg 82%
    02:00 +26°C° 0.3 mm 2 mps 721 mmHg 84%
    03:00 +26°C° 0 mm 2 mps 721 mmHg 86%
    04:00 +26°C° 0 mm 2 mps 721 mmHg 88%
    05:00 +25°C° 0 mm 2 mps 721 mmHg 89%
    06:00 +26°C° 0 mm 2 mps 721 mmHg 86%
    07:00 +27°C° 0 mm 2 mps 722 mmHg 83%
    08:00 +28°C° 0 mm 3 mps 722 mmHg 80%
    09:00 +29°C° 0.2 mm 3 mps 722 mmHg 77%
    10:00 +30°C° 0.2 mm 3 mps 723 mmHg 73%
    11:00 +32°C° 0.2 mm 4 mps 723 mmHg 70%
    12:00 +33°C° 0.3 mm 4 mps 722 mmHg 68%
    13:00 +33°C° 0.3 mm 4 mps 721 mmHg 67%
    14:00 +33°C° 0.3 mm 3 mps 720 mmHg 66%
    15:00 +33°C° 0.5 mm 3 mps 720 mmHg 69%
    16:00 +31°C° 0.5 mm 3 mps 720 mmHg 72%
    17:00 +31°C° 0.5 mm 2 mps 719 mmHg 75%
    18:00 +30°C° 0.1 mm 2 mps 720 mmHg 76%
    19:00 +29°C° 0.1 mm 2 mps 720 mmHg 78%
    20:00 +28°C° 0.1 mm 1 mps 721 mmHg 80%
    21:00 +28°C° 0 mm 1 mps 721 mmHg 81%
    22:00 +27°C° 0 mm 1 mps 721 mmHg 82%
    23:00 +27°C° 0 mm 1 mps 721 mmHg 83%

    Tomorrow, 20 August, Tuesday

    Time Temperature Precipitation Wind Pressure Humidity
    00:00 +27°C° 0.2 mm 2 mps 721 mmHg 85%
    01:00 +26°C° 0.2 mm 2 mps 721 mmHg 87%
    02:00 +26°C° 0.2 mm 2 mps 720 mmHg 89%
    03:00 +26°C° 0.1 mm 2 mps 720 mmHg 90%
    04:00 +26°C° 0.1 mm 2 mps 720 mmHg 91%
    05:00 +25°C° 0.1 mm 3 mps 721 mmHg 92%
    06:00 +26°C° 0 mm 3 mps 721 mmHg 89%
    07:00 +27°C° 0 mm 4 mps 722 mmHg 87%
    08:00 +27°C° 0 mm 5 mps 722 mmHg 84%
    09:00 +28°C° 0.2 mm 5 mps 722 mmHg 82%
    10:00 +29°C° 0.2 mm 5 mps 722 mmHg 80%
    11:00 +30°C° 0.2 mm 5 mps 722 mmHg 77%
    12:00 +30°C° 0.9 mm 5 mps 721 mmHg 76%
    13:00 +30°C° 0.9 mm 5 mps 721 mmHg 75%
    14:00 +32°C° 0.9 mm 5 mps 720 mmHg 74%
    15:00 +30°C° 1.5 mm 4 mps 719 mmHg 77%
    16:00 +30°C° 1.5 mm 4 mps 719 mmHg 80%
    17:00 +29°C° 1.5 mm 3 mps 719 mmHg 83%
    18:00 +28°C° 1.3 mm 3 mps 719 mmHg 84%
    19:00 +28°C° 1.3 mm 3 mps 720 mmHg 85%
    20:00 +27°C° 1.3 mm 3 mps 720 mmHg 86%
    21:00 +27°C° 0.9 mm 3 mps 720 mmHg 86%
    22:00 +27°C° 0.9 mm 3 mps 721 mmHg 87%
    23:00 +26°C° 0.9 mm 3 mps 721 mmHg 87%

    Day after tomorrow, 21 August, Wednesday

    Time Temperature Precipitation Wind Pressure Humidity
    00:00 +26°C° 1.2 mm 4 mps 720 mmHg 90%
    01:00 +26°C° 1.2 mm 5 mps 720 mmHg 92%
    02:00 +24°C° 1.2 mm 6 mps 720 mmHg 94%
    03:00 +25°C° 4.5 mm 5 mps 720 mmHg 95%
    04:00 +25°C° 4.5 mm 5 mps 720 mmHg 95%
    05:00 +25°C° 4.5 mm 4 mps 720 mmHg 96%
    06:00 +25°C° 0.6 mm 4 mps 720 mmHg 94%
    07:00 +25°C° 0.6 mm 4 mps 721 mmHg 93%
    08:00 +26°C° 0.6 mm 4 mps 721 mmHg 92%
    09:00 +26°C° 0.2 mm 4 mps 721 mmHg 89%
    10:00 +27°C° 0.2 mm 5 mps 721 mmHg 86%
    11:00 +27°C° 0.2 mm 6 mps 721 mmHg 84%
    12:00 +27°C° 0.1 mm 5 mps 721 mmHg 84%
    13:00 +27°C° 0.1 mm 5 mps 720 mmHg 84%
    14:00 +27°C° 0.1 mm 5 mps 719 mmHg 84%
    15:00 +26°C° 0 mm 4 mps 719 mmHg 86%
    16:00 +26°C° 0 mm 3 mps 719 mmHg 87%
    17:00 +26°C° 0 mm 3 mps 718 mmHg 89%
    18:00 +26°C° 0.3 mm 3 mps 719 mmHg 90%
    19:00 +25°C° 0.3 mm 2 mps 719 mmHg 91%
    20:00 +25°C° 0.3 mm 2 mps 720 mmHg 91%
    21:00 +25°C° 0.1 mm 2 mps 720 mmHg 92%
    22:00 +25°C° 0.1 mm 2 mps 720 mmHg 92%
    23:00 +25°C° 0.1 mm 2 mps 720 mmHg 93%

    22 August, Thursday

    Time Temperature Precipitation Wind Pressure Humidity
    00:00 +24°C° 0.5 mm 3 mps 720 mmHg 93%
    01:00 +23°C° 0.5 mm 4 mps 719 mmHg 94%
    02:00 +23°C° 0.5 mm 4 mps 719 mmHg 95%
    03:00 +23°C° 0.3 mm 4 mps 719 mmHg 95%
    04:00 +23°C° 0.3 mm 4 mps 719 mmHg 94%
    05:00 +23°C° 0.3 mm 4 mps 719 mmHg 94%
    06:00 +23°C° 0 mm 4 mps 720 mmHg 92%
    07:00 +25°C° 0 mm 5 mps 720 mmHg 90%
    08:00 +25°C° 0 mm 5 mps 721 mmHg 88%
    09:00 +25°C° 0.4 mm 5 mps 721 mmHg 89%
    10:00 +25°C° 0.4 mm 5 mps 721 mmHg 89%
    11:00 +25°C° 0.4 mm 5 mps 720 mmHg 89%
    12:00 +25°C° 0.5 mm 5 mps 720 mmHg 90%
    13:00 +25°C° 0.5 mm 4 mps 719 mmHg 91%
    14:00 +25°C° 0.5 mm 4 mps 719 mmHg 93%
    15:00 +25°C° 0 mm 3 mps 719 mmHg 92%
    16:00 +25°C° 0 mm 3 mps 719 mmHg 92%
    17:00 +25°C° 0 mm 2 mps 718 mmHg 92%
    18:00 +25°C° 0 mm 2 mps 719 mmHg 91%
    19:00 +25°C° 0 mm 2 mps 719 mmHg 91%
    20:00 +25°C° 0 mm 2 mps 719 mmHg 90%
    21:00 +25°C° 0 mm 2 mps 720 mmHg 90%
    22:00 +25°C° 0 mm 2 mps 720 mmHg 90%
    23:00 +25°C° 0 mm 2 mps 720 mmHg 90%

    23 August, Friday

    Time Temperature Precipitation Wind Pressure Humidity
    00:00 +24°C° 0.3 mm 2 mps 719 mmHg 91%
    01:00 +24°C° 0.3 mm 2 mps 719 mmHg 92%
    02:00 +24°C° 0.3 mm 3 mps 719 mmHg 92%
    03:00 +24°C° 0.7 mm 3 mps 719 mmHg 92%
    04:00 +24°C° 0.7 mm 3 mps 719 mmHg 92%
    05:00 +24°C° 0.7 mm 3 mps 719 mmHg 92%
    06:00 +25°C° 0 mm 3 mps 720 mmHg 91%
    07:00 +25°C° 0 mm 3 mps 720 mmHg 89%
    08:00 +25°C° 0 mm 3 mps 721 mmHg 88%
    09:00 +27°C° 0 mm 3 mps 721 mmHg 83%
    10:00 +28°C° 0 mm 4 mps 721 mmHg 77%
    11:00 +30°C° 0 mm 5 mps 721 mmHg 72%
    12:00 +30°C° 0.1 mm 5 mps 720 mmHg 70%
    13:00 +32°C° 0.1 mm 5 mps 720 mmHg 69%
    14:00 +32°C° 0.1 mm 5 mps 719 mmHg 67%
    15:00 +32°C° 0.4 mm 4 mps 719 mmHg 71%
    16:00 +30°C° 0.4 mm 3 mps 719 mmHg 75%
    17:00 +30°C° 0.4 mm 2 mps 719 mmHg 79%
    18:00 +29°C° 0.2 mm 2 mps 719 mmHg 81%
    19:00 +28°C° 0.2 mm 1 mps 719 mmHg 83%
    20:00 +26°C° 0.2 mm 1 mps 720 mmHg 85%
    21:00 +26°C° 0.3 mm 1 mps 720 mmHg 85%
    22:00 +26°C° 0.3 mm 1 mps 720 mmHg 86%
    23:00 +26°C° 0.3 mm 1 mps 720 mmHg 86%

    24 August, Saturday

    Time Temperature Precipitation Wind Pressure Humidity
    00:00 +26°C° 0.4 mm 1 mps 720 mmHg 87%
    01:00 +25°C° 0.4 mm 1 mps 719 mmHg 87%
    02:00 +25°C° 0.4 mm 2 mps 719 mmHg 88%
    03:00 +25°C° 0.5 mm 2 mps 719 mmHg 89%
    04:00 +25°C° 0.5 mm 3 mps 719 mmHg 90%
    05:00 +25°C° 0.5 mm 3 mps 720 mmHg 91%
    06:00 +26°C° 0.1 mm 4 mps 720 mmHg 89%
    07:00 +26°C° 0.1 mm 4 mps 721 mmHg 87%
    08:00 +27°C° 0.1 mm 5 mps 721 mmHg 85%
    09:00 +28°C° 0.2 mm 5 mps 721 mmHg 82%
    10:00 +29°C° 0.2 mm 5 mps 721 mmHg 78%
    11:00 +30°C° 0.2 mm 5 mps 721 mmHg 75%
    12:00 +30°C° 1.5 mm 5 mps 721 mmHg 75%
    13:00 +30°C° 1.5 mm 5 mps 720 mmHg 75%
    14:00 +30°C° 1.5 mm 5 mps 719 mmHg 76%
    15:00 +30°C° 1.3 mm 4 mps 719 mmHg 78%
    16:00 +30°C° 1.3 mm 3 mps 719 mmHg 81%
    17:00 +29°C° 1.3 mm 3 mps 718 mmHg 83%
    18:00 +28°C° 0.8 mm 3 mps 719 mmHg 85%
    19:00 +27°C° 0.8 mm 2 mps 719 mmHg 86%
    20:00 +26°C° 0.8 mm 2 mps 720 mmHg 87%
    21:00 +26°C° 0.3 mm 2 mps 720 mmHg 87%
    22:00 +26°C° 0.3 mm 2 mps 720 mmHg 87%
    23:00 +26°C° 0.3 mm 2 mps 720 mmHg 87%
    Show more